Regional Weather Roundup
Issued by NWS

Home | Current Version | Previous Version | Text Only | Print | Product List | Glossary Off
Versions: 1 2 3 4 5 6 7 8 9 10 11 12 13 14 15 16 17 18 19 20 21 22 23 24 25 26 27 28 29 30 31 32 33 34 35 36 37 38 39 40 41 42 43 44 45 46 47 48 49 50

000
ASUS45 KPSR 191710
RWRAZ

ARIZONA HOURLY REGIONAL WEATHER ROUNDUP
NATIONAL WEATHER SERVICE PHOENIX AZ
1000 AM MST THU JAN 19 2017

NOTE: FAIR INDICATES FEW OR NO CLOUDS BELOW 12,000 FEET WITH NO
SIGNIFICANT WEATHER AND/OR OBSTRUCTIONS TO VISIBILITY.

AZZ001>003-036-191800-
NORTHWEST ARIZONA

CITY           SKY/WX    TMP DP  RH WIND       PRES   REMARKS
BULLHEAD CITY  CLOUDY    50  46  87 CALM      29.95R
KINGMAN        LGT RAIN  43  38  82 CALM      29.93R
$$

AZZ004>008-015-016-018-191800-
NORTH CENTRAL ARIZONA

CITY           SKY/WX    TMP DP  RH WIND       PRES   REMARKS
GRAND CANYON   MIX PCPN  31  30  96 SW13      29.92S FOG     WCI  21
WILLIAMS       CLOUDY    32  28  86 S15G24    29.93S FOG     WCI  22
PRESCOTT       CLOUDY    37  35  92 SE7       29.98S FOG     WCI  32
FLAGSTAFF      LGT SNOW  29  28  96 SW16      29.94S VSB 1   WCI  17
PAYSON         CLOUDY    39  36  87 S5        30.03F
PAGE           CLOUDY    39  31  72 NE3       29.87F
$$

AZZ009>014-017-191800-
NORTHEAST ARIZONA

CITY           SKY/WX    TMP DP  RH WIND       PRES   REMARKS
WINSLOW        CLOUDY    42  31  64 SW12      29.95R
SAINT JOHNS    PTSUNNY   40  30  67 CALM      29.96S
SHOW LOW       CLOUDY    36  27  69 SW16G26   29.98R WCI  26
$$

AZZ023-191800-
GREATER PHOENIX AREA

CITY           SKY/WX    TMP DP  RH WIND       PRES   REMARKS
PHOENIX        CLOUDY    51  44  77 SE6       30.02R
BUCKEYE        CLOUDY    50  50 100 NE7       30.02R
GLENDALE       CLOUDY    48  48 100 N7        30.03S
LUKE AFB       CLOUDY    49  49  99 E5        30.01F
DEER VALLEY    CLOUDY    50  43  77 VRB3      30.02R
SCOTTSDALE     LGT RAIN  51  42  71 SE3       30.03R
MESA-FALCON    CLOUDY   N/A N/A N/A E12       30.00R
MESA-GATEWAY   CLOUDY    50  43  76 E7        30.03R
CHANDLER       DRIZZLE   50  45  81 CALM      30.04R
$$

AZZ027-028-191800-
SOUTHWEST MARICOPA COUNTY AND PINAL COUNTY

CITY           SKY/WX    TMP DP  RH WIND       PRES   REMARKS
CASA GRANDE    CLOUDY    51  41  68 S6        30.04R
$$

AZZ503-504-507>509-191800-
SOUTHEAST ARIZONA

CITY           SKY/WX    TMP DP  RH WIND       PRES   REMARKS
TUCSON         CLOUDY    49  37  63 VRB5      30.07R
DAVIS-MONTHAN  CLOUDY    48  36  63 S6        30.06R
RYAN FIELD     SUNNY     46  41  81 SE8       30.07R
NOGALES        CLOUDY    46  35  65 S7        30.06S
SIERRA VISTA   PTSUNNY   47  32  55 NW6       30.07R
DOUGLAS        PTSUNNY   47  33  58 S7        30.06S
SAFFORD        PTSUNNY   48  37  65 SE6       30.01S
$$

AZZ020-021-025-026-031-191800-
SOUTHWEST ARIZONA

CITY           SKY/WX    TMP DP  RH WIND       PRES   REMARKS
YUMA           CLOUDY    57  46  66 N7        29.99R
$$

CAZ031-033-041-043-047-048-061-191800-
SOUTHERN CALIFORNIA

CITY           SKY/WX    TMP DP  RH WIND       PRES   REMARKS
DOWNTOWN L.A.  CLOUDY    56  52  86 CALM      29.96R
L.A. AIRPORT   PTSUNNY   58  54  86 W8        29.95R
SAN DIEGO      LGT RAIN  59  55  87 SW15      30.01S
BURBANK        CLOUDY    52  50  93 SE5       29.94R
ONTARIO        LGT RAIN  50  49  96 N5        29.95R
RIVERSIDE      LGT RAIN  51  50  96 W5        29.94R FOG
PALM SPRINGS   LGT RAIN  51  50  96 SE6       29.96F FOG
EL CENTRO NAS  PTSUNNY   56  50  80 SE8       29.96R
IMPERIAL       SUNNY     56  51  84 E7        29.94S
BLYTHE         MOSUNNY   55  47  74 S10       29.97S
NEEDLES        CLOUDY    54  45  71 N3        29.94R
$$

NVZ020-UTZ003-191800-
SOUTHERN NEVADA-UTAH

CITY           SKY/WX    TMP DP  RH WIND       PRES   REMARKS
LAS VEGAS      CLOUDY    51  39  63 S9        29.84S
SALT LAKE CITY SNOW      28  26  92 CALM      29.80F VSB 1/2
$$

NMZ009-TXZ055-191800-
NEW MEXICO-WEST TEXAS

CITY           SKY/WX    TMP DP  RH WIND       PRES   REMARKS
ALBUQUERQUE    CLOUDY    39  31  72 NW5       29.95S
EL PASO        MOSUNNY   53  30  41 W10G18    29.99R
$$


........................KEY........................
SKY/WX - SKY CONDITION/WEATHER
TMP    - TEMPERATURE IN FAHRENHEIT
DP     - DEW POINT IN FAHRENHEIT
RH     - RELATIVE HUMIDITY IN PERCENT
WIND   - DIRECTION AND SPEED IN MILES PER HOUR (MPH)
VRB    - VARIABLE WIND DIRECTION
PRES   - MEAN SEA LEVEL PRESSURE IN INCHES OF MERCURY
         F - FALLING PRESSURE   R - RISING PRESSURE
         S - STEADY PRESSURE
VSB    - VISIBILITY IN MILES
HX     - HEAT INDEX IN FAHRENHEIT
WCI    - WIND CHILL INDEX IN FAHRENHEIT
TC     - TEMPERATURE IN CELSIUS WHICH IS ALSO KNOWN AS
         TEMPERATURE IN CENTIGRADE
AFB    - AIR FORCE BASE
         LUKE AFB IS LUKE AIR FORCE BASE
         DAVIS-MONTHAN IS DAVIS-MONTHAN AIR FORCE BASE
NAS    - NAVAL AIR STATION
         EL CENTRO NAS IS EL CENTRO NAVAL AIR STATION
N/A    - NOT AVAILABLE




USA.gov is the U.S. government's official web portal to all federal, state and local government web resources and services.